,,,PA_Meas_PMT16A,,PR_Meas_QMR101_102,,RH_Meas_QMH101,,SR_Meas_QMS101,,TA_Meas_QMH101,,GenWind,,GenWind,
date,time,status,PA,status,PR,status,RH,status,SR,status,TA,status,DirAvg,status,SpdAvg,
2012-08-03, 07:44:04,VALID,1005.36,VALID,0,VALID,87.2591,VALID,140.684,VALID,26.605,INVALID,360,INVALID,0,
2012-08-03, 07:45:04,VALID,1005.34,VALID,0,VALID,87.343,VALID,143.7,VALID,26.6655,VALID,11,VALID,0.325391,
2012-08-03, 07:46:04,VALID,1005.35,VALID,0,VALID,85.7944,VALID,146.961,VALID,26.642,VALID,360,VALID,0.733203,
2012-08-03, 07:47:04,VALID,1005.32,VALID,0,VALID,86.1529,VALID,150.791,VALID,26.7004,VALID,359,VALID,0.479297,
2012-08-03, 07:48:04,VALID,1005.37,VALID,0,VALID,85.5274,VALID,154.378,VALID,26.7609,VALID,23,VALID,0.550391,
2012-08-03, 07:49:04,VALID,1005.36,VALID,0,VALID,86.1148,VALID,157.883,VALID,26.8388,VALID,23,VALID,0.00195313,
2012-08-03, 07:50:04,VALID,1005.34,VALID,0,VALID,85.3595,VALID,159.676,VALID,26.8973,VALID,16,VALID,0.391406,
2012-08-03, 07:51:04,VALID,1005.32,VALID,0,VALID,85.1459,VALID,160.899,VALID,26.9537,VALID,16,VALID,0.530469,
2012-08-03, 07:52:04,VALID,1005.3,VALID,0,VALID,86.0233,VALID,162.447,VALID,27.0726,VALID,16,VALID,0.679297,
2012-08-03, 07:53:04,VALID,1005.28,VALID,0,VALID,84.7035,VALID,164.566,VALID,27.0511,VALID,347,VALID,0.892187,
2012-08-03, 07:54:04,VALID,1005.33,VALID,0,VALID,83.9024,VALID,166.36,VALID,27.1116,VALID,348,VALID,1.37617,
2012-08-03, 07:55:04,VALID,1005.28,VALID,0,VALID,84.2228,VALID,169.865,VALID,27.1311,VALID,73,VALID,1.11523,
2012-08-03, 07:56:04,VALID,1005.29,VALID,0,VALID,84.4288,VALID,175,VALID,27.17,VALID,71,VALID,0.454297,
2012-08-03, 07:57:04,VALID,1005.31,VALID,0,VALID,84.6272,VALID,180.787,VALID,27.209,VALID,64,VALID,0.407031,
2012-08-03, 07:58:04,VALID,1005.31,VALID,0,VALID,83.8338,VALID,186.574,VALID,27.2459,VALID,65,VALID,0.325781,
2012-08-03, 07:59:04,VALID,1005.34,VALID,0,VALID,82.9259,VALID,191.79,VALID,27.2849,VALID,75,VALID,1.07148,
2012-08-03, 08:00:04,VALID,1005.34,VALID,0,VALID,83.2845,VALID,196.6,VALID,27.3628,VALID,65,VALID,0.0175781,
2012-08-03, 08:01:04,VALID,1005.34,VALID,0,VALID,82.2851,VALID,201.572,VALID,27.4018,VALID,33,VALID,0.159766,
2012-08-03, 08:02:04,VALID,1005.33,VALID,0,VALID,82.6208,VALID,205.81,VALID,27.4387,VALID,77,VALID,0.882813,
2012-08-03, 08:03:04,VALID,1005.32,VALID,0,VALID,83.1014,VALID,210.13,VALID,27.4797,VALID,59,VALID,0.485156,
2012-08-03, 08:04:04,VALID,1005.33,VALID,0,VALID,82.1783,VALID,215.836,VALID,27.5598,VALID,24,VALID,0.838672,
2012-08-03, 08:05:04,VALID,1005.29,VALID,0,VALID,81.9952,VALID,217.384,VALID,27.5598,VALID,6,VALID,0.682422,
2012-08-03, 08:06:04,VALID,1005.3,VALID,0,VALID,83.0632,VALID,220.971,VALID,27.6356,VALID,7,VALID,0.226953,
2012-08-03, 08:07:04,VALID,1005.29,VALID,0,VALID,82.3614,VALID,267.757,VALID,27.6941,VALID,10,VALID,0.644531,
2012-08-03, 08:08:04,VALID,1005.28,VALID,0,VALID,82.1249,VALID,218.281,VALID,27.6941,VALID,20,VALID,1.1207,
2012-08-03, 08:09:04,VALID,1005.28,VALID,0,VALID,80.9653,VALID,209.885,VALID,27.6941,VALID,353,VALID,0.880859,
2012-08-03, 08:10:04,VALID,1005.22,VALID,0,VALID,81.4993,VALID,206.381,VALID,27.6962,VALID,75,VALID,0.411328,
2012-08-03, 08:11:04,VALID,1005.19,VALID,0,VALID,82.247,VALID,202.876,VALID,27.733,VALID,72,VALID,0.2125,
2012-08-03, 08:12:04,VALID,1005.17,VALID,0,VALID,80.9119,VALID,200.104,VALID,27.772,VALID,340,VALID,1.11367,
2012-08-03, 08:13:04,VALID,1005.21,VALID,0,VALID,81.4764,VALID,197.496,VALID,27.7525,VALID,359,VALID,0.816797,
2012-08-03, 08:14:04,VALID,1005.15,VALID,0,VALID,81.6138,VALID,194.562,VALID,27.7936,VALID,36,VALID,0.0964844,
2012-08-03, 08:15:04,VALID,1005.13,VALID,0,VALID,82.3995,VALID,191.383,VALID,27.8521,VALID,80,VALID,0.479297,
2012-08-03, 08:16:04,VALID,1005.15,VALID,0,VALID,81.3773,VALID,189.101,VALID,27.9127,VALID,360,VALID,0.828516,
2012-08-03, 08:17:04,VALID,1005.12,VALID,0,VALID,81.1408,VALID,188.367,VALID,27.93,VALID,45,VALID,0.293359,
2012-08-03, 08:18:04,VALID,1005.12,VALID,0,VALID,80.4923,VALID,189.101,VALID,27.9495,VALID,34,VALID,0.751562,
2012-08-03, 08:19:04,VALID,1005.12,VALID,0,VALID,81.1103,VALID,190.568,VALID,27.9495,VALID,27,VALID,0.694922,
2012-08-03, 08:20:04,VALID,1005.11,VALID,0,VALID,80.7593,VALID,191.872,VALID,27.9711,VALID,69,VALID,0.9,
2012-08-03, 08:21:04,VALID,1005.09,VALID,0,VALID,80.3779,VALID,192.524,VALID,27.8716,VALID,82,VALID,1.15742,
2012-08-03, 08:22:04,VALID,1005.09,VALID,0,VALID,81.1713,VALID,191.301,VALID,27.8542,VALID,71,VALID,0.805469,
2012-08-03, 08:23:04,VALID,1005.08,VALID,0,VALID,81.6748,VALID,189.916,VALID,27.8932,VALID,80,VALID,0.364062,
2012-08-03, 08:24:04,VALID,1005.08,VALID,0,VALID,82.0562,VALID,189.753,VALID,27.9105,VALID,75,VALID,0.5375,
2012-08-03, 08:25:04,VALID,1005.07,VALID,0,VALID,81.5604,VALID,190.405,VALID,27.8932,VALID,87,VALID,0.369531,
2012-08-03, 08:26:04,VALID,1005.07,VALID,0,VALID,81.629,VALID,190.731,VALID,27.9321,VALID,56,VALID,0.479297,
2012-08-03, 08:27:04,VALID,1005.08,VALID,0,VALID,81.2934,VALID,191.138,VALID,27.93,VALID,99,VALID,0.910547,
2012-08-03, 08:28:04,VALID,1005.06,VALID,0,VALID,81.5146,VALID,191.057,VALID,27.8889,VALID,85,VALID,0.242969,
2012-08-03, 08:29:04,VALID,1005.04,VALID,0,VALID,81.0874,VALID,190.975,VALID,27.9321,VALID,93,VALID,1.22344,
2012-08-03, 08:30:04,VALID,1005.03,VALID,0,VALID,80.7593,VALID,190.079,VALID,27.8521,VALID,77,VALID,1.43672,
2012-08-03, 08:31:04,VALID,1005.05,VALID,0,VALID,80.9882,VALID,187.063,VALID,27.8542,VALID,68,VALID,0.957812,
2012-08-03, 08:32:04,VALID,1005.02,VALID,0,VALID,81.1865,VALID,183.232,VALID,27.7741,VALID,98,VALID,1.70156,
2012-08-03, 08:33:04,VALID,1005.07,VALID,0,VALID,81.9952,VALID,179.075,VALID,27.6962,VALID,59,VALID,0.934375,
2012-08-03, 08:34:04,VALID,1005.05,VALID,0,VALID,81.7663,VALID,175.815,VALID,27.6398,VALID,80,VALID,1.40781,
2012-08-03, 08:35:04,VALID,1005.08,VALID,0,VALID,82.1096,VALID,173.777,VALID,27.6203,VALID,87,VALID,1.8293,
2012-08-03, 08:36:04,VALID,1005.05,VALID,0,VALID,82.3919,VALID,172.962,VALID,27.5813,VALID,81,VALID,1.44219,
2012-08-03, 08:37:04,VALID,1005.1,VALID,0,VALID,82.4529,VALID,172.473,VALID,27.5424,VALID,92,VALID,1.89375,
2012-08-03, 08:38:04,VALID,1005.1,VALID,0,VALID,83.0098,VALID,171.739,VALID,27.5034,VALID,65,VALID,0.767187,
2012-08-03, 08:39:04,VALID,1005.11,VALID,0,VALID,83.9101,VALID,170.68,VALID,27.5424,VALID,109,VALID,0.894922,
2012-08-03, 08:40:04,VALID,1005.12,VALID,0,VALID,83.7117,VALID,169.294,VALID,27.5813,VALID,103,VALID,0.344922,
2012-08-03, 08:41:04,VALID,1005.13,VALID,0,VALID,83.3303,VALID,167.908,VALID,27.6203,VALID,71,VALID,0.279687,
2012-08-03, 08:42:04,VALID,1005.1,VALID,0,VALID,83.1472,VALID,166.36,VALID,27.6593,VALID,72,VALID,0.833984,
2012-08-03, 08:43:04,VALID,1005.11,VALID,0,VALID,82.3156,VALID,164.73,VALID,27.6377,VALID,118,VALID,1.72148,
2012-08-03, 08:44:04,VALID,1005.13,VALID,0,VALID,83.3226,VALID,163.344,VALID,27.6203,VALID,117,VALID,0.640234,
2012-08-03, 08:45:04,VALID,1005.15,VALID,0,VALID,82.8496,VALID,162.366,VALID,27.6203,VALID,96,VALID,1.21914,
2012-08-03, 08:46:04,VALID,1005.1,VALID,0,VALID,82.7047,VALID,162.529,VALID,27.6203,VALID,101,VALID,1.18828,
2012-08-03, 08:47:04,VALID,1005.13,VALID,0,VALID,82.9183,VALID,163.67,VALID,27.6008,VALID,95,VALID,0.832031,
2012-08-03, 08:48:04,VALID,1005.12,VALID,0,VALID,82.903,VALID,166.278,VALID,27.6203,VALID,99,VALID,0.830859,
2012-08-03, 08:49:04,VALID,1005.11,VALID,0,VALID,83.0175,VALID,169.865,VALID,27.6008,VALID,137,VALID,1.32383,
2012-08-03, 08:50:04,VALID,1005.15,VALID,0,VALID,82.7047,VALID,174.511,VALID,27.6203,VALID,26,VALID,1.31875,
2012-08-03, 08:51:04,VALID,1005.12,VALID,0,VALID,83.2006,VALID,180.95,VALID,27.6203,VALID,86,VALID,0.678906,
2012-08-03, 08:52:04,VALID,1005.12,VALID,0,VALID,83.3455,VALID,188.775,VALID,27.6398,VALID,117,VALID,0.921484,
2012-08-03, 08:53:04,VALID,1005.1,VALID,0,VALID,82.9183,VALID,197.415,VALID,27.5987,VALID,93,VALID,1.3457,
2012-08-03, 08:54:04,VALID,1005.1,VALID,0,VALID,83.048,VALID,206.462,VALID,27.6203,VALID,67,VALID,2.68203,
2012-08-03, 08:55:04,VALID,1005.11,VALID,0,VALID,83.2997,VALID,214.368,VALID,27.6029,VALID,86,VALID,1.17969,
2012-08-03, 08:56:04,VALID,1005.06,VALID,0,VALID,83.315,VALID,219.993,VALID,27.6008,VALID,88,VALID,0.635547,
2012-08-03, 08:57:04,VALID,1005.09,VALID,0,VALID,83.5362,VALID,222.845,VALID,27.6593,VALID,97,VALID,1.18555,
2012-08-03, 08:58:04,VALID,1005.08,VALID,0,VALID,82.5903,VALID,223.008,VALID,27.6593,VALID,76,VALID,1.38711,
2012-08-03, 08:59:04,VALID,1005.06,VALID,0,VALID,82.7962,VALID,221.541,VALID,27.6356,VALID,64,VALID,1.05508,
2012-08-03, 09:00:04,VALID,1005.07,VALID,0,VALID,82.8725,VALID,219.585,VALID,27.6551,VALID,72,VALID,0.845312,
2012-08-03, 09:01:04,VALID,1005.08,VALID,0,VALID,83.2311,VALID,218.444,VALID,27.7157,VALID,82,VALID,0.899219,
2012-08-03, 09:02:04,VALID,1005.05,VALID,0,VALID,82.7352,VALID,218.036,VALID,27.7136,VALID,74,VALID,1.25781,
2012-08-03, 09:03:04,VALID,1005.07,VALID,0,VALID,82.2775,VALID,218.607,VALID,27.6962,VALID,92,VALID,2.00547,
2012-08-03, 09:04:04,VALID,1005.09,VALID,0,VALID,83.2769,VALID,220.237,VALID,27.7157,VALID,95,VALID,0.695703,
2012-08-03, 09:05:04,VALID,1005.09,VALID,0,VALID,83.2158,VALID,223.008,VALID,27.7525,VALID,26,VALID,0.687109,
2012-08-03, 09:06:04,VALID,1005.09,VALID,0,VALID,82.1249,VALID,226.106,VALID,27.772,VALID,72,VALID,1.51797,
2012-08-03, 09:07:04,VALID,1005.08,VALID,0,VALID,82.163,VALID,228.796,VALID,27.7351,VALID,84,VALID,2.12461,
2012-08-03, 09:08:04,VALID,1005.11,VALID,0,VALID,81.6443,VALID,236.702,VALID,27.7157,VALID,115,VALID,1.25195,
2012-08-03, 09:09:04,VALID,1005.1,VALID,0,VALID,82.7734,VALID,240.777,VALID,27.7741,VALID,85,VALID,1.07266,
2012-08-03, 09:10:04,VALID,1005.11,VALID,0,VALID,81.6672,VALID,240.207,VALID,27.772,VALID,84,VALID,0.965625,
2012-08-03, 09:11:04,VALID,1005.12,VALID,0,VALID,82.0105,VALID,238.332,VALID,27.8521,VALID,20,VALID,0.947656,
2012-08-03, 09:12:04,VALID,1005.11,VALID,0,VALID,81.6138,VALID,240.288,VALID,27.8521,VALID,124,VALID,1.57422,
2012-08-03, 09:13:04,VALID,1005.13,VALID,0,VALID,81.2781,VALID,244.853,VALID,27.8305,VALID,86,VALID,1.45352,
2012-08-03, 09:14:04,VALID,1005.12,VALID,0,VALID,81.8808,VALID,250.721,VALID,27.9127,VALID,86,VALID,0.876172,
2012-08-03, 09:15:04,VALID,1005.13,VALID,0,VALID,81.1942,VALID,256.183,VALID,27.9711,VALID,93,VALID,1.26172,
2012-08-03, 09:16:04,VALID,1005.11,VALID,0,VALID,81.4688,VALID,261.318,VALID,27.969,VALID,80,VALID,1.22656,
2012-08-03, 09:17:04,VALID,1005.12,VALID,0,VALID,80.6525,VALID,265.719,VALID,27.9495,VALID,95,VALID,2.11758,
2012-08-03, 09:18:04,VALID,1005.08,VALID,0,VALID,80.3169,VALID,269.632,VALID,27.8932,VALID,81,VALID,1.84375,
2012-08-03, 09:19:04,VALID,1005.09,VALID,0,VALID,81.2476,VALID,269.55,VALID,27.8326,VALID,91,VALID,1.54766,
2012-08-03, 09:20:04,VALID,1005.09,VALID,0,VALID,81.4688,VALID,268.327,VALID,27.8131,VALID,79,VALID,1.03555,
2012-08-03, 09:21:04,VALID,1005.11,VALID,0,VALID,81.2247,VALID,267.023,VALID,27.8716,VALID,108,VALID,1.70117,
2012-08-03, 09:22:04,VALID,1005.1,VALID,0,VALID,82.1402,VALID,265.882,VALID,27.9105,VALID,118,VALID,1.21016,
2012-08-03, 09:23:04,VALID,1005.11,VALID,0,VALID,80.7975,VALID,265.556,VALID,27.9105,VALID,92,VALID,1.07031,
2012-08-03, 09:24:04,VALID,1005.11,VALID,0,VALID,81.4383,VALID,267.023,VALID,27.9495,VALID,104,VALID,1.16445,
2012-08-03, 09:25:04,VALID,1005.11,VALID,0,VALID,80.6296,VALID,269.794,VALID,27.9474,VALID,90,VALID,1.06523,
2012-08-03, 09:26:04,VALID,1005.1,VALID,0,VALID,80.9958,VALID,273.136,VALID,28.008,VALID,99,VALID,1.10156,
2012-08-03, 09:27:04,VALID,1005.11,VALID,0,VALID,82.1096,VALID,277.619,VALID,28.1054,VALID,12,VALID,0.607813,
2012-08-03, 09:28:04,VALID,1005.13,VALID,0,VALID,80.622,VALID,280.065,VALID,28.1834,VALID,53,VALID,0.565625,
2012-08-03, 09:29:04,VALID,1005.11,VALID,0,VALID,79.4624,VALID,284.874,VALID,28.1834,VALID,125,VALID,1.17461,
2012-08-03, 09:30:04,VALID,1005.12,VALID,0,VALID,81.629,VALID,290.172,VALID,28.2419,VALID,100,VALID,1.33047,
2012-08-03, 09:31:04,VALID,1005.13,VALID,0,VALID,80.3703,VALID,295.714,VALID,28.2809,VALID,93,VALID,1.43633,
2012-08-03, 09:32:04,VALID,1005.12,VALID,0,VALID,79.3556,VALID,301.909,VALID,28.2809,VALID,65,VALID,1.38398,
2012-08-03, 09:33:04,VALID,1005.09,VALID,0,VALID,78.5317,VALID,309.163,VALID,28.3003,VALID,83,VALID,0.828516,
2012-08-03, 09:34:04,VALID,1005.08,VALID,0,VALID,79.0352,VALID,317.07,VALID,28.3198,VALID,132,VALID,1.28555,
2012-08-03, 09:35:04,VALID,1005.1,VALID,0,VALID,78.9055,VALID,326.199,VALID,28.3198,VALID,136,VALID,0.845703,
2012-08-03, 09:36:04,VALID,1005.09,VALID,0,VALID,79.5616,VALID,336.795,VALID,28.3567,VALID,136,VALID,0.439453,
2012-08-03, 09:37:04,VALID,1005.08,VALID,0,VALID,79.3175,VALID,355.623,VALID,28.4563,VALID,146,VALID,1.09297,
2012-08-03, 09:38:04,VALID,1005.11,VALID,0,VALID,79.0428,VALID,362.959,VALID,28.4953,VALID,134,VALID,1.12266,
2012-08-03, 09:39:04,VALID,1005.14,VALID,0,VALID,78.0511,VALID,384.152,VALID,28.4974,VALID,105,VALID,1.2375,
2012-08-03, 09:40:04,VALID,1005.11,VALID,0,VALID,77.5323,VALID,391.243,VALID,28.4953,VALID,120,VALID,1.95234,
2012-08-03, 09:41:04,VALID,1005.15,VALID,0,VALID,76.5863,VALID,407.626,VALID,28.5169,VALID,130,VALID,1.69844,
2012-08-03, 09:42:04,VALID,1005.16,VALID,0,VALID,78.1731,VALID,420.504,VALID,28.4563,VALID,127,VALID,1.2082,
2012-08-03, 09:43:04,VALID,1005.15,VALID,0,VALID,76.7084,VALID,436.725,VALID,28.6144,VALID,89,VALID,0.967969,
2012-08-03, 09:44:04,VALID,1005.16,VALID,0,VALID,76.4872,VALID,462.482,VALID,28.6707,VALID,84,VALID,0.694141,
2012-08-03, 09:45:04,VALID,1005.18,VALID,0,VALID,77.1051,VALID,487.668,VALID,28.8267,VALID,82,VALID,0.457031,
2012-08-03, 09:46:04,VALID,1005.14,VALID,0,VALID,75.4115,VALID,499.487,VALID,29.0043,VALID,347,VALID,1.36758,
2012-08-03, 09:47:04,VALID,1005.15,VALID,0,VALID,77.7001,VALID,526.548,VALID,29.1386,VALID,13,VALID,0.598437,
2012-08-03, 09:48:04,VALID,1005.16,VALID,0,VALID,74.6944,VALID,515.544,VALID,29.3163,VALID,83,VALID,0.426953,
2012-08-03, 09:49:04,VALID,1005.18,VALID,0,VALID,74.023,VALID,497.693,VALID,29.3748,VALID,133,VALID,1.34766,
2012-08-03, 09:50:04,VALID,1005.19,VALID,0,VALID,73.6645,VALID,457.265,VALID,29.1971,VALID,113,VALID,1.20273,
2012-08-03, 09:51:04,VALID,1005.22,VALID,0,VALID,73.8628,VALID,430.938,VALID,29.2188,VALID,83,VALID,1.1207,
2012-08-03, 09:52:04,VALID,1005.23,VALID,0,VALID,74.1603,VALID,426.373,VALID,29.2383,VALID,92,VALID,1.81875,
2012-08-03, 09:53:04,VALID,1005.24,VALID,0,VALID,76.121,VALID,437.051,VALID,29.1798,VALID,90,VALID,1.4043,
2012-08-03, 09:54:04,VALID,1005.25,VALID,0,VALID,76.3193,VALID,508.127,VALID,29.1408,VALID,97,VALID,0.799609,
2012-08-03, 09:55:04,VALID,1005.24,VALID,0,VALID,74.0841,VALID,504.948,VALID,29.104,VALID,123,VALID,1.17227,
2012-08-03, 09:56:04,VALID,1005.3,VALID,0,VALID,74.3206,VALID,492.721,VALID,29.0433,VALID,101,VALID,1.04141,
2012-08-03, 09:57:04,VALID,1005.28,VALID,0,VALID,75.3581,VALID,505.926,VALID,29.1603,VALID,92,VALID,1.14727,
2012-08-03, 09:58:04,VALID,1005.29,VALID,0,VALID,72.7795,VALID,487.505,VALID,29.1603,VALID,92,VALID,0.953906,
2012-08-03, 09:59:04,VALID,1005.29,VALID,0,VALID,73.016,VALID,471.366,VALID,29.2361,VALID,92,VALID,0.059375,
2012-08-03, 10:00:04,VALID,1005.28,VALID,0,VALID,72.6727,VALID,480.658,VALID,29.431,VALID,109,VALID,0.490625,
2012-08-03, 10:01:04,VALID,1005.29,VALID,0,VALID,71.8793,VALID,466.557,VALID,29.4483,VALID,151,VALID,1.29141,
2012-08-03, 10:02:04,VALID,1005.25,VALID,0,VALID,72.2684,VALID,472.915,VALID,29.4918,VALID,138,VALID,0.657422,
2012-08-03, 10:03:04,VALID,1005.24,VALID,0,VALID,71.5742,VALID,446.587,VALID,29.5503,VALID,32,VALID,0.946875,
2012-08-03, 10:04:04,VALID,1005.26,VALID,0,VALID,73.3898,VALID,417.652,VALID,29.587,VALID,39,VALID,0.926562,
2012-08-03, 10:05:04,VALID,1005.22,VALID,0,VALID,72.3294,VALID,395.726,VALID,29.6065,VALID,41,VALID,0.809375,
2012-08-03, 10:06:04,VALID,1005.23,VALID,0,VALID,72.6269,VALID,381.543,VALID,29.7063,VALID,32,VALID,0.287109,
2012-08-03, 10:07:04,VALID,1005.19,VALID,0,VALID,70.9867,VALID,368.665,VALID,29.704,VALID,136,VALID,1.3125,
2012-08-03, 10:08:04,VALID,1005.2,VALID,0,VALID,71.0173,VALID,356.846,VALID,29.5308,VALID,163,VALID,0.732031,
2012-08-03, 10:09:04,VALID,1005.25,VALID,0,VALID,72.6575,VALID,345.842,VALID,29.4528,VALID,163,VALID,0.356641,
2012-08-03, 10:10:04,VALID,1005.21,VALID,0,VALID,72.5125,VALID,334.676,VALID,29.5308,VALID,146,VALID,0.434766,
2012-08-03, 10:11:04,VALID,1005.19,VALID,0,VALID,73.2601,VALID,323.835,VALID,29.6088,VALID,90,VALID,0.110937,
2012-08-03, 10:12:04,VALID,1005.21,VALID,0,VALID,70.384,VALID,314.38,VALID,29.6868,VALID,34,VALID,0.713672,
2012-08-03, 10:13:04,VALID,1005.24,VALID,0,VALID,71.5513,VALID,307.941,VALID,29.6673,VALID,34,VALID,0.046875,
2012-08-03, 10:14:04,VALID,1005.22,VALID,0,VALID,70.7045,VALID,301.991,VALID,29.6845,VALID,18,VALID,0.515234,
2012-08-03, 10:15:04,VALID,1005.21,VALID,0,VALID,70.7273,VALID,295.633,VALID,29.7648,VALID,5,VALID,0.234375,
2012-08-03, 10:16:04,VALID,1005.21,VALID,0,VALID,71.4674,VALID,289.683,VALID,29.9013,VALID,360,VALID,0.484766,
2012-08-03, 10:17:04,VALID,1005.19,VALID,0,VALID,72.0166,VALID,284.548,VALID,29.899,VALID,253,VALID,0.124609,
2012-08-03, 10:18:04,VALID,1005.19,VALID,0,VALID,72.215,VALID,280.798,VALID,29.9208,VALID,253,VALID,0.124219,
2012-08-03, 10:19:04,VALID,1005.18,VALID,0,VALID,72.8329,VALID,278.434,VALID,29.9013,VALID,253,VALID,0.271875,
2012-08-03, 10:20:04,VALID,1005.17,VALID,0,VALID,71.3834,VALID,276.641,VALID,29.9013,VALID,253,VALID,0.287891,
2012-08-03, 10:21:04,VALID,1005.19,VALID,0,VALID,72.6193,VALID,274.848,VALID,29.8623,VALID,198,VALID,0.744922,
2012-08-03, 10:22:04,VALID,1005.19,VALID,0,VALID,72.9855,VALID,271.343,VALID,29.8015,VALID,222,VALID,0.309766,
2012-08-03, 10:23:04,VALID,1005.18,VALID,0,VALID,74.0383,VALID,265.475,VALID,29.8233,VALID,199,VALID,0.551562,
2012-08-03, 10:24:04,VALID,1005.17,VALID,0,VALID,72.6498,VALID,260.584,VALID,29.6283,VALID,150,VALID,0.931641,
2012-08-03, 10:25:04,VALID,1005.17,VALID,0,VALID,73.5882,VALID,258.22,VALID,29.4333,VALID,118,VALID,1.53906,
2012-08-03, 10:26:04,VALID,1005.12,VALID,0,VALID,76.4643,VALID,260.176,VALID,29.3163,VALID,155,VALID,1.07031,
2012-08-03, 10:27:04,VALID,1005.1,VALID,0,VALID,76.4185,VALID,263.192,VALID,29.2578,VALID,184,VALID,1.12422,
2012-08-03, 10:28:04,VALID,1005.08,VALID,0,VALID,75.915,VALID,264.741,VALID,29.1798,VALID,187,VALID,1.46133,
2012-08-03, 10:29:04,VALID,1005.08,VALID,0,VALID,76.7771,VALID,266.86,VALID,29.0433,VALID,134,VALID,1.09063,
2012-08-03, 10:30:04,VALID,1005.09,VALID,0,VALID,77.9214,VALID,271.588,VALID,29.0216,VALID,100,VALID,0.949609,
2012-08-03, 10:31:04,VALID,1005.07,VALID,0,VALID,75.6937,VALID,276.152,VALID,29.0628,VALID,92,VALID,0.823828,
2012-08-03, 10:32:04,VALID,1005.05,VALID,0,VALID,75.77,VALID,279.087,VALID,29.0823,VALID,91,VALID,0.494531,
2012-08-03, 10:33:04,VALID,1004.99,VALID,0,VALID,75.0148,VALID,281.939,VALID,29.1213,VALID,114,VALID,1.08672,
2012-08-03, 10:34:04,VALID,1004.99,VALID,0,VALID,74.374,VALID,281.695,VALID,29.1213,VALID,171,VALID,1.07031,
2012-08-03, 10:35:04,VALID,1004.96,VALID,0,VALID,74.7935,VALID,281.124,VALID,29.0823,VALID,160,VALID,0.412109,
2012-08-03, 10:36:04,VALID,1004.93,VALID,0,VALID,75.9684,VALID,282.347,VALID,29.0801,VALID,177,VALID,0.68125,
2012-08-03, 10:37:04,VALID,1004.94,VALID,0,VALID,77.2272,VALID,285.281,VALID,29.2188,VALID,76,VALID,0.314844,
2012-08-03, 10:38:04,VALID,1004.89,VALID,0,VALID,76.5024,VALID,288.297,VALID,29.2166,VALID,110,VALID,0.89375,
2012-08-03, 10:39:04,VALID,1004.9,VALID,0,VALID,76.5253,VALID,286.096,VALID,29.2795,VALID,146,VALID,1.01563,
2012-08-03, 10:40:04,VALID,1004.89,VALID,0,VALID,75.77,VALID,279.005,VALID,29.1581,VALID,121,VALID,1.63984,
2012-08-03, 10:41:04,VALID,1004.93,VALID,0,VALID,76.2201,VALID,277.375,VALID,29.0433,VALID,106,VALID,1.2793,
2012-08-03, 10:42:04,VALID,1004.89,VALID,0,VALID,77.189,VALID,279.087,VALID,29.0043,VALID,122,VALID,0.857813,
2012-08-03, 10:43:04,VALID,1004.88,VALID,0,VALID,76.655,VALID,284.466,VALID,28.9263,VALID,119,VALID,1.82305,
2012-08-03, 10:44:04,VALID,1004.88,VALID,0,VALID,77.1814,VALID,282.347,VALID,28.8483,VALID,104,VALID,1.66445,
2012-08-03, 10:45:04,VALID,1004.88,VALID,0,VALID,76.5329,VALID,279.739,VALID,28.7509,VALID,152,VALID,1.51836,
2012-08-03, 10:46:04,VALID,1004.82,VALID,0,VALID,77.0517,VALID,270.284,VALID,28.6729,VALID,129,VALID,1.4332,
2012-08-03, 10:47:04,VALID,1004.83,VALID,0,VALID,76.655,VALID,257.161,VALID,28.6729,VALID,110,VALID,1.30117,
2012-08-03, 10:48:04,VALID,1004.83,VALID,0,VALID,77.0822,VALID,246.809,VALID,28.6729,VALID,166,VALID,0.373828,
2012-08-03, 10:49:04,VALID,1004.83,VALID,0,VALID,77.9977,VALID,235.479,VALID,28.7704,VALID,189,VALID,0.185547,
2012-08-03, 10:50:04,VALID,1004.82,VALID,0,VALID,78.4859,VALID,230.752,VALID,28.8873,VALID,146,VALID,1.02305,
2012-08-03, 10:51:04,VALID,1004.81,VALID,0,VALID,77.0746,VALID,229.04,VALID,28.9653,VALID,123,VALID,1.23008,
2012-08-03, 10:52:04,VALID,1004.82,VALID,0,VALID,78.6538,VALID,231.73,VALID,28.9458,VALID,100,VALID,1.19961,
2012-08-03, 10:53:04,VALID,1004.79,VALID,0,VALID,79.0276,VALID,236.539,VALID,29.0628,VALID,83,VALID,0.308203,
2012-08-03, 10:54:04,VALID,1004.78,VALID,0,VALID,77.1814,VALID,243.304,VALID,29.1386,VALID,99,VALID,0.939844,
2012-08-03, 10:55:04,VALID,1004.8,VALID,0,VALID,76.7313,VALID,253.167,VALID,29.1581,VALID,89,VALID,1.23164,
2012-08-03, 10:56:04,VALID,1004.82,VALID,0,VALID,75.976,VALID,263.437,VALID,29.1408,VALID,79,VALID,1.15547,
2012-08-03, 10:57:04,VALID,1004.76,VALID,0,VALID,76.8076,VALID,274.277,VALID,29.1603,VALID,75,VALID,0.511719,
2012-08-03, 10:58:04,VALID,1004.77,VALID,0,VALID,76.0905,VALID,288.705,VALID,29.1993,VALID,29,VALID,1.25195,
2012-08-03, 10:59:04,VALID,1004.76,VALID,0,VALID,75.6327,VALID,299.219,VALID,29.1213,VALID,81,VALID,1.4375,
2012-08-03, 11:00:04,VALID,1004.76,VALID,0,VALID,75.5335,VALID,305.903,VALID,29.065,VALID,87,VALID,1.07656,
2012-08-03, 11:01:04,VALID,1004.73,VALID,0,VALID,75.5793,VALID,312.098,VALID,29.0433,VALID,79,VALID,1.30859,
2012-08-03, 11:02:04,VALID,1004.71,VALID,0,VALID,76.3651,VALID,316.988,VALID,28.9848,VALID,79,VALID,1.26211,
2012-08-03, 11:03:04,VALID,1004.73,VALID,0,VALID,76.0523,VALID,324.568,VALID,28.9263,VALID,101,VALID,1.08398,
2012-08-03, 11:04:04,VALID,1004.74,VALID,0,VALID,78.3562,VALID,336.306,VALID,29.0238,VALID,31,VALID,0.659375,
2012-08-03, 11:05:04,VALID,1004.75,VALID,0,VALID,76.8228,VALID,352.363,VALID,29.0433,VALID,24,VALID,0.920313,
2012-08-03, 11:06:04,VALID,1004.74,VALID,0,VALID,75.9989,VALID,364.997,VALID,29.1018,VALID,79,VALID,0.742578,
2012-08-03, 11:07:04,VALID,1004.72,VALID,0,VALID,76.1057,VALID,371.11,VALID,29.1603,VALID,88,VALID,0.901172,
2012-08-03, 11:08:04,VALID,1004.72,VALID,0,VALID,76.327,VALID,376.816,VALID,29.1776,VALID,94,VALID,1.13008,
2012-08-03, 11:09:04,VALID,1004.75,VALID,0,VALID,76.5787,VALID,381.299,VALID,29.2166,VALID,91,VALID,1.19062,
2012-08-03, 11:10:04,VALID,1004.75,VALID,0,VALID,75.0834,VALID,383.173,VALID,29.2188,VALID,99,VALID,1.87109,
2012-08-03, 11:11:04,VALID,1004.74,VALID,0,VALID,74.7554,VALID,384.07,VALID,29.0801,VALID,94,VALID,1.44727,
2012-08-03, 11:12:04,VALID,1004.73,VALID,0,VALID,77.0059,VALID,379.587,VALID,29.0823,VALID,118,VALID,2.46914,
2012-08-03, 11:13:04,VALID,1004.72,VALID,0,VALID,77.2806,VALID,372.985,VALID,29.1018,VALID,81,VALID,0.9625,
2012-08-03, 11:14:04,VALID,1004.73,VALID,0,VALID,76.7542,VALID,357.254,VALID,29.1581,VALID,80,VALID,0.582031,
2012-08-03, 11:15:04,VALID,1004.73,VALID,0,VALID,74.3816,VALID,349.021,VALID,29.2361,VALID,65,VALID,0.947266,
2012-08-03, 11:16:04,VALID,1004.7,VALID,0,VALID,75.6709,VALID,344.375,VALID,29.2773,VALID,85,VALID,0.381641,
2012-08-03, 11:17:04,VALID,1004.69,VALID,0,VALID,71.8412,VALID,338.425,VALID,29.2773,VALID,135,VALID,1.03711,
2012-08-03, 11:18:04,VALID,1004.7,VALID,0,VALID,72.8482,VALID,323.509,VALID,29.314,VALID,94,VALID,1.10508,